Time,TemperatureF,DewpointF,PressureIn,WindDirection,WindDirectionDegrees,WindSpeedMPH,WindSpeedGustMPH,Humidity,HourlyPrecipIn,Conditions,Clouds,dailyrainin,SoftwareType,DateUTC
2013-05-02 00:03:00,43.5,29.8,30.55,North,0,0.0,0.0,58,0.00,,,0.00,WUHU216HW,2013-05-02 07:03:00,
2013-05-02 00:08:00,43.3,30.0,30.55,North,0,0.0,0.0,59,0.00,,,0.00,WUHU216HW,2013-05-02 07:08:00,
2013-05-02 00:13:00,43.3,30.4,30.54,North,0,0.0,0.0,60,0.00,,,0.00,WUHU216HW,2013-05-02 07:13:00,
2013-05-02 00:20:00,43.3,30.4,30.55,North,0,0.0,0.0,60,0.00,,,0.00,WUHU216HW,2013-05-02 07:20:00,
2013-05-02 00:25:00,43.3,30.4,30.54,North,0,0.0,0.0,60,0.00,,,0.00,WUHU216HW,2013-05-02 07:25:00,
2013-05-02 00:30:00,43.1,30.2,30.55,North,0,0.0,0.0,60,0.00,,,0.00,WUHU216HW,2013-05-02 07:30:00,
2013-05-02 00:35:00,42.9,30.1,30.55,North,0,0.0,0.0,60,0.00,,,0.00,WUHU216HW,2013-05-02 07:35:00,
2013-05-02 00:42:00,42.8,30.0,30.55,North,0,0.0,0.0,60,0.00,,,0.00,WUHU216HW,2013-05-02 07:42:00,
2013-05-02 00:47:00,42.6,29.8,30.55,North,0,0.0,0.0,60,0.00,,,0.00,WUHU216HW,2013-05-02 07:47:00,
2013-05-02 00:52:00,42.4,30.0,30.55,North,0,0.0,0.0,61,0.00,,,0.00,WUHU216HW,2013-05-02 07:52:00,
2013-05-02 00:59:00,42.4,30.4,30.55,North,0,0.0,0.0,62,0.00,,,0.00,WUHU216HW,2013-05-02 07:59:00,
2013-05-02 01:04:00,42.4,30.0,30.55,North,0,0.0,0.0,61,0.00,,,0.00,WUHU216HW,2013-05-02 08:04:00,
2013-05-02 01:09:00,42.4,29.6,30.54,North,0,0.0,0.0,60,0.00,,,0.00,WUHU216HW,2013-05-02 08:09:00,
2013-05-02 01:14:00,42.4,30.0,30.55,North,0,0.0,0.0,61,0.00,,,0.00,WUHU216HW,2013-05-02 08:14:00,
2013-05-02 01:19:00,42.4,30.0,30.54,North,0,0.0,0.0,61,0.00,,,0.00,WUHU216HW,2013-05-02 08:19:00,
2013-05-02 01:25:00,42.2,30.2,30.54,North,0,0.0,0.0,62,0.00,,,0.00,WUHU216HW,2013-05-02 08:25:00,
2013-05-02 01:30:00,42.2,30.2,30.54,North,0,0.0,0.0,62,0.00,,,0.00,WUHU216HW,2013-05-02 08:30:00,
2013-05-02 01:35:00,42.4,30.0,30.54,North,0,0.0,0.0,61,0.00,,,0.00,WUHU216HW,2013-05-02 08:35:00,
2013-05-02 01:40:00,42.6,30.2,30.54,North,0,0.0,0.0,61,0.00,,,0.00,WUHU216HW,2013-05-02 08:40:00,
2013-05-02 01:45:00,42.6,30.2,30.54,North,0,0.0,0.0,61,0.00,,,0.00,WUHU216HW,2013-05-02 08:45:00,
2013-05-02 01:50:00,42.8,30.0,30.54,North,0,0.0,0.0,60,0.00,,,0.00,WUHU216HW,2013-05-02 08:50:00,
2013-05-02 01:55:00,42.9,30.1,30.54,North,0,0.0,0.0,60,0.00,,,0.00,WUHU216HW,2013-05-02 08:55:00,
2013-05-02 02:00:00,42.9,30.1,30.54,North,0,0.0,0.0,60,0.00,,,0.00,WUHU216HW,2013-05-02 09:00:00,
2013-05-02 02:06:00,42.6,29.8,30.54,North,0,0.0,0.0,60,0.00,,,0.00,WUHU216HW,2013-05-02 09:06:00,
2013-05-02 02:11:00,42.6,29.8,30.54,North,0,0.0,0.0,60,0.00,,,0.00,WUHU216HW,2013-05-02 09:11:00,
2013-05-02 02:18:00,42.6,29.8,30.54,North,0,0.0,0.0,60,0.00,,,0.00,WUHU216HW,2013-05-02 09:18:00,
2013-05-02 02:23:00,42.4,29.6,30.54,North,0,0.0,0.0,60,0.00,,,0.00,WUHU216HW,2013-05-02 09:23:00,
2013-05-02 02:28:00,42.2,29.8,30.54,North,0,0.0,0.0,61,0.00,,,0.00,WUHU216HW,2013-05-02 09:28:00,
2013-05-02 02:34:00,41.7,29.8,30.54,North,0,0.0,0.0,62,0.00,,,0.00,WUHU216HW,2013-05-02 09:34:00,
2013-05-02 02:42:00,41.7,30.2,30.54,North,0,0.0,0.0,63,0.00,,,0.00,WUHU216HW,2013-05-02 09:42:00,
2013-05-02 02:47:00,41.7,30.2,30.54,North,0,0.0,0.0,63,0.00,,,0.00,WUHU216HW,2013-05-02 09:47:00,
2013-05-02 02:52:00,41.6,30.4,30.54,North,0,0.0,0.0,64,0.00,,,0.00,WUHU216HW,2013-05-02 09:52:00,
2013-05-02 02:57:00,41.4,30.2,30.54,North,0,0.0,0.0,64,0.00,,,0.00,WUHU216HW,2013-05-02 09:57:00,
2013-05-02 03:03:00,41.2,30.4,30.54,North,0,0.0,0.0,65,0.00,,,0.00,WUHU216HW,2013-05-02 10:03:00,
2013-05-02 03:08:00,41.2,30.7,30.54,North,0,0.0,0.0,66,0.00,,,0.00,WUHU216HW,2013-05-02 10:08:00,
2013-05-02 03:13:00,41.1,30.7,30.54,North,0,0.0,0.0,66,0.00,,,0.00,WUHU216HW,2013-05-02 10:13:00,
2013-05-02 03:18:00,41.1,30.7,30.54,North,0,0.0,0.0,66,0.00,,,0.00,WUHU216HW,2013-05-02 10:18:00,
2013-05-02 03:23:00,41.1,31.4,30.53,North,0,0.0,0.0,68,0.00,,,0.00,WUHU216HW,2013-05-02 10:23:00,
2013-05-02 03:28:00,41.2,31.5,30.53,North,0,0.0,0.0,68,0.00,,,0.00,WUHU216HW,2013-05-02 10:28:00,
2013-05-02 03:34:00,41.1,31.4,30.53,North,0,0.0,0.0,68,0.00,,,0.00,WUHU216HW,2013-05-02 10:34:00,
2013-05-02 03:40:00,40.9,31.6,30.53,NNW,338,0.0,0.0,69,0.00,,,0.00,WUHU216HW,2013-05-02 10:40:00,
2013-05-02 03:45:00,40.9,32.3,30.52,NNW,338,0.0,0.0,71,0.00,,,0.00,WUHU216HW,2013-05-02 10:45:00,
2013-05-02 03:50:00,40.9,32.3,30.52,NNW,338,0.0,0.0,71,0.00,,,0.00,WUHU216HW,2013-05-02 10:50:00,
2013-05-02 03:56:00,40.7,32.4,30.52,NNW,338,0.0,0.0,72,0.00,,,0.00,WUHU216HW,2013-05-02 10:56:00,
2013-05-02 04:01:00,40.3,32.0,30.52,NNW,338,0.0,0.0,72,0.00,,,0.00,WUHU216HW,2013-05-02 11:01:00,
2013-05-02 04:06:00,40.3,32.0,30.52,NNW,338,0.0,0.0,72,0.00,,,0.00,WUHU216HW,2013-05-02 11:06:00,
2013-05-02 04:11:00,40.3,32.4,30.52,NNW,338,0.0,0.0,73,0.00,,,0.00,WUHU216HW,2013-05-02 11:11:00,
2013-05-02 04:16:00,40.3,32.4,30.52,NNW,338,0.0,0.0,73,0.00,,,0.00,WUHU216HW,2013-05-02 11:16:00,
2013-05-02 04:22:00,40.0,32.4,30.52,NNW,338,0.0,0.0,74,0.00,,,0.00,WUHU216HW,2013-05-02 11:22:00,
2013-05-02 04:29:00,39.8,32.6,30.52,NNW,338,0.0,0.0,75,0.00,,,0.00,WUHU216HW,2013-05-02 11:29:00,
2013-05-02 04:35:00,39.4,32.2,30.52,NNW,338,0.0,0.0,75,0.00,,,0.00,WUHU216HW,2013-05-02 11:35:00,
2013-05-02 04:40:00,39.4,32.5,30.52,NNW,338,0.0,0.0,76,0.00,,,0.00,WUHU216HW,2013-05-02 11:40:00,
2013-05-02 04:45:00,39.3,32.4,30.52,NNW,338,0.0,0.0,76,0.00,,,0.00,WUHU216HW,2013-05-02 11:45:00,
2013-05-02 04:50:00,39.1,32.5,30.52,NNW,338,0.0,0.0,77,0.00,,,0.00,WUHU216HW,2013-05-02 11:50:00,
2013-05-02 04:56:00,39.1,32.5,30.52,NNW,338,0.0,0.0,77,0.00,,,0.00,WUHU216HW,2013-05-02 11:56:00,
2013-05-02 05:01:00,39.1,32.9,30.52,NNW,338,0.0,0.0,78,0.00,,,0.00,WUHU216HW,2013-05-02 12:01:00,
2013-05-02 05:06:00,38.9,33.3,30.52,NNW,338,0.0,0.0,80,0.00,,,0.00,WUHU216HW,2013-05-02 12:06:00,
2013-05-02 05:12:00,38.9,33.3,30.52,NNW,338,0.0,0.0,80,0.00,,,0.00,WUHU216HW,2013-05-02 12:12:00,
2013-05-02 05:17:00,38.7,33.1,30.52,NNW,338,0.0,0.0,80,0.00,,,0.00,WUHU216HW,2013-05-02 12:17:00,
2013-05-02 05:22:00,38.9,33.6,30.52,NNW,338,0.0,0.0,81,0.00,,,0.00,WUHU216HW,2013-05-02 12:22:00,
2013-05-02 05:27:00,39.8,34.4,30.51,NNE,23,0.0,0.0,81,0.00,,,0.00,WUHU216HW,2013-05-02 12:27:00,
2013-05-02 05:32:00,40.3,34.6,30.50,North,0,0.0,0.0,80,0.00,,,0.00,WUHU216HW,2013-05-02 12:32:00,
2013-05-02 05:37:00,40.7,35.0,30.50,NNW,338,0.0,0.0,80,0.00,,,0.00,WUHU216HW,2013-05-02 12:37:00,
2013-05-02 05:43:00,41.1,35.1,30.50,NNW,338,0.0,0.0,79,0.00,,,0.00,WUHU216HW,2013-05-02 12:43:00,
2013-05-02 05:48:00,41.6,35.2,30.50,NNE,23,0.0,2.9,78,0.00,,,0.00,WUHU216HW,2013-05-02 12:48:00,
2013-05-02 05:53:00,41.6,34.9,30.50,NNE,23,0.0,2.9,77,0.00,,,0.00,WUHU216HW,2013-05-02 12:53:00,
2013-05-02 05:58:00,41.6,34.6,30.51,NNE,23,0.0,0.0,76,0.00,,,0.00,WUHU216HW,2013-05-02 12:58:00,
2013-05-02 06:04:00,41.2,34.2,30.51,NNE,23,0.0,0.0,76,0.00,,,0.00,WUHU216HW,2013-05-02 13:04:00,
2013-05-02 06:11:00,40.9,34.3,30.51,NNE,23,0.0,0.0,77,0.00,,,0.00,WUHU216HW,2013-05-02 13:11:00,
2013-05-02 06:16:00,40.7,34.1,30.51,NNE,23,0.0,0.0,77,0.00,,,0.00,WUHU216HW,2013-05-02 13:16:00,
2013-05-02 06:21:00,40.3,34.0,30.51,NNE,23,0.0,0.0,78,0.00,,,0.00,WUHU216HW,2013-05-02 13:21:00,
2013-05-02 06:27:00,40.9,34.6,30.51,NNE,23,0.0,0.0,78,0.00,,,0.00,WUHU216HW,2013-05-02 13:27:00,
2013-05-02 06:33:00,40.9,34.6,30.51,NNE,23,0.0,0.0,78,0.00,,,0.00,WUHU216HW,2013-05-02 13:33:00,
2013-05-02 06:38:00,41.1,34.8,30.50,NNE,23,0.0,0.0,78,0.00,,,0.00,WUHU216HW,2013-05-02 13:38:00,
2013-05-02 06:44:00,41.2,34.9,30.50,NNE,23,0.0,0.0,78,0.00,,,0.00,WUHU216HW,2013-05-02 13:44:00,
2013-05-02 06:50:00,41.6,35.2,30.50,NNE,23,0.0,0.0,78,0.00,,,0.00,WUHU216HW,2013-05-02 13:50:00,
2013-05-02 06:55:00,41.6,35.6,30.50,NNE,23,0.0,0.0,79,0.00,,,0.00,WUHU216HW,2013-05-02 13:55:00,
2013-05-02 07:00:00,41.6,35.6,30.50,NNE,23,0.0,0.0,79,0.00,,,0.00,WUHU216HW,2013-05-02 14:00:00,
2013-05-02 07:05:00,41.6,35.6,30.51,NNE,23,0.0,0.0,79,0.00,,,0.00,WUHU216HW,2013-05-02 14:05:00,
2013-05-02 07:10:00,42.0,36.0,30.51,NNE,23,0.0,0.0,79,0.00,,,0.00,WUHU216HW,2013-05-02 14:10:00,
2013-05-02 07:15:00,42.6,36.3,30.50,NNE,23,0.0,0.0,78,0.00,,,0.00,WUHU216HW,2013-05-02 14:15:00,
2013-05-02 07:20:00,43.8,37.4,30.50,NNE,23,0.0,0.0,78,0.00,,,0.00,WUHU216HW,2013-05-02 14:20:00,
2013-05-02 07:25:00,45.6,38.2,30.50,NNW,338,0.0,0.0,75,0.00,,,0.00,WUHU216HW,2013-05-02 14:25:00,
2013-05-02 07:30:00,47.7,39.6,30.51,NNW,338,0.0,0.0,73,0.00,,,0.00,WUHU216HW,2013-05-02 14:30:00,
2013-05-02 07:36:00,49.9,39.8,30.51,NNW,338,0.0,0.0,68,0.00,,,0.00,WUHU216HW,2013-05-02 14:36:00,
2013-05-02 07:41:00,51.7,39.7,30.51,NNE,23,0.0,2.2,63,0.00,,,0.00,WUHU216HW,2013-05-02 14:41:00,
2013-05-02 07:46:00,53.4,40.0,30.51,NNE,23,0.0,2.2,60,0.00,,,0.00,WUHU216HW,2013-05-02 14:46:00,
2013-05-02 07:51:00,55.2,39.8,30.50,NNE,23,0.0,0.0,56,0.00,,,0.00,WUHU216HW,2013-05-02 14:51:00,
2013-05-02 07:59:00,57.6,40.2,30.50,NNE,23,0.0,0.0,52,0.00,,,0.00,WUHU216HW,2013-05-02 14:59:00,
2013-05-02 08:04:00,58.8,40.2,30.49,North,0,0.0,0.0,50,0.00,,,0.00,WUHU216HW,2013-05-02 15:04:00,
2013-05-02 08:09:00,59.7,39.9,30.49,NW,315,0.0,0.8,48,0.00,,,0.00,WUHU216HW,2013-05-02 15:09:00,
2013-05-02 08:14:00,60.6,39.6,30.49,NNW,338,0.0,1.3,46,0.00,,,0.00,WUHU216HW,2013-05-02 15:14:00,
2013-05-02 08:19:00,61.6,40.0,30.49,NW,315,0.0,1.3,45,0.00,,,0.00,WUHU216HW,2013-05-02 15:19:00,
2013-05-02 08:24:00,62.9,39.3,30.49,NNW,338,0.0,0.0,42,0.00,,,0.00,WUHU216HW,2013-05-02 15:24:00,
2013-05-02 08:31:00,63.8,39.5,30.49,West,270,0.0,2.9,41,0.00,,,0.00,WUHU216HW,2013-05-02 15:31:00,
2013-05-02 08:36:00,65.0,39.9,30.49,West,270,1.9,4.6,40,0.00,,,0.00,WUHU216HW,2013-05-02 15:36:00,
2013-05-02 08:42:00,65.4,39.6,30.49,NNE,23,0.0,4.9,39,0.00,,,0.00,WUHU216HW,2013-05-02 15:42:00,
2013-05-02 08:47:00,65.8,38.7,30.49,North,0,0.0,4.9,37,0.00,,,0.00,WUHU216HW,2013-05-02 15:47:00,
2013-05-02 08:52:00,66.4,39.2,30.49,West,270,0.0,0.0,37,0.00,,,0.00,WUHU216HW,2013-05-02 15:52:00,
2013-05-02 08:57:00,67.1,39.0,30.49,West,270,0.0,4.4,36,0.00,,,0.00,WUHU216HW,2013-05-02 15:57:00,
2013-05-02 09:02:00,67.9,39.1,30.49,North,0,0.0,4.4,35,0.00,,,0.00,WUHU216HW,2013-05-02 16:02:00,
2013-05-02 09:08:00,68.8,39.1,30.49,WNW,293,0.0,0.0,34,0.00,,,0.00,WUHU216HW,2013-05-02 16:08:00,
2013-05-02 09:13:00,69.2,39.5,30.48,North,0,3.3,3.5,34,0.00,,,0.00,WUHU216HW,2013-05-02 16:13:00,
2013-05-02 09:18:00,70.3,39.6,30.48,West,270,1.9,3.5,33,0.00,,,0.00,WUHU216HW,2013-05-02 16:18:00,
2013-05-02 09:23:00,70.8,39.3,30.48,West,270,0.0,2.0,32,0.00,,,0.00,WUHU216HW,2013-05-02 16:23:00,
2013-05-02 09:28:00,70.4,38.2,30.48,NW,315,1.9,4.2,31,0.00,,,0.00,WUHU216HW,2013-05-02 16:28:00,
2013-05-02 09:33:00,70.6,39.9,30.48,West,270,2.1,4.2,33,0.00,,,0.00,WUHU216HW,2013-05-02 16:33:00,
2013-05-02 09:38:00,71.7,40.1,30.48,West,270,4.8,5.1,32,0.00,,,0.00,WUHU216HW,2013-05-02 16:38:00,
2013-05-02 09:44:00,71.7,39.3,30.48,West,270,0.0,7.3,31,0.00,,,0.00,WUHU216HW,2013-05-02 16:44:00,
2013-05-02 09:49:00,72.3,40.6,30.48,North,0,0.0,7.3,32,0.00,,,0.00,WUHU216HW,2013-05-02 16:49:00,
2013-05-02 09:54:00,71.4,39.0,30.48,West,270,5.9,6.2,31,0.00,,,0.00,WUHU216HW,2013-05-02 16:54:00,
2013-05-02 09:59:00,71.6,39.2,30.48,WNW,293,6.4,6.7,31,0.00,,,0.00,WUHU216HW,2013-05-02 16:59:00,
2013-05-02 10:04:00,71.1,39.6,30.48,West,270,6.7,7.1,32,0.00,,,0.00,WUHU216HW,2013-05-02 17:04:00,
2013-05-02 10:09:00,70.6,38.3,30.48,NNE,23,0.0,7.1,31,0.00,,,0.00,WUHU216HW,2013-05-02 17:09:00,
2013-05-02 10:16:00,71.1,39.5,30.48,West,270,4.7,4.9,32,0.00,,,0.00,WUHU216HW,2013-05-02 17:16:00,
2013-05-02 10:21:00,71.2,38.9,30.47,West,270,1.9,4.9,31,0.00,,,0.00,WUHU216HW,2013-05-02 17:21:00,
2013-05-02 10:27:00,71.5,39.1,30.47,West,270,0.0,5.5,31,0.00,,,0.00,WUHU216HW,2013-05-02 17:27:00,
2013-05-02 10:34:00,71.9,38.6,30.47,NNW,338,6.4,7.1,30,0.00,,,0.00,WUHU216HW,2013-05-02 17:34:00,
2013-05-02 10:39:00,69.9,38.5,30.46,NW,315,0.0,8.5,32,0.00,,,0.00,WUHU216HW,2013-05-02 17:39:00,
2013-05-02 10:44:00,71.8,41.0,30.46,WSW,248,1.9,8.5,33,0.00,,,0.00,WUHU216HW,2013-05-02 17:44:00,
2013-05-02 10:49:00,72.3,41.4,30.46,WSW,248,0.0,2.4,33,0.00,,,0.00,WUHU216HW,2013-05-02 17:49:00,
2013-05-02 10:55:00,72.0,39.5,30.46,NNW,338,0.0,1.3,31,0.00,,,0.00,WUHU216HW,2013-05-02 17:55:00,
2013-05-02 11:00:00,73.0,41.3,30.46,WNW,293,0.0,0.0,32,0.00,,,0.00,WUHU216HW,2013-05-02 18:00:00,
2013-05-02 11:05:00,74.0,41.3,30.46,West,270,0.0,0.0,31,0.00,,,0.00,WUHU216HW,2013-05-02 18:05:00,
2013-05-02 11:11:00,72.1,38.8,30.46,NNE,23,0.0,5.1,30,0.00,,,0.00,WUHU216HW,2013-05-02 18:11:00,
2013-05-02 11:17:00,71.7,37.6,30.46,ESE,113,0.0,0.0,29,0.00,,,0.00,WUHU216HW,2013-05-02 18:17:00,
2013-05-02 11:22:00,72.8,38.5,30.46,ENE,68,6.7,7.1,29,0.00,,,0.00,WUHU216HW,2013-05-02 18:22:00,
2013-05-02 11:28:00,72.7,37.6,30.46,North,0,0.6,7.1,28,0.00,,,0.00,WUHU216HW,2013-05-02 18:28:00,
2013-05-02 11:34:00,73.9,38.6,30.45,North,0,5.7,6.0,28,0.00,,,0.00,WUHU216HW,2013-05-02 18:34:00,
2013-05-02 11:39:00,72.7,37.6,30.45,North,0,0.6,6.7,28,0.00,,,0.00,WUHU216HW,2013-05-02 18:39:00,
2013-05-02 11:44:00,73.9,38.5,30.46,West,270,0.0,6.7,28,0.00,,,0.00,WUHU216HW,2013-05-02 18:44:00,
2013-05-02 11:50:00,73.7,37.5,30.45,West,270,4.2,4.4,27,0.00,,,0.00,WUHU216HW,2013-05-02 18:50:00,
2013-05-02 11:55:00,73.3,37.2,30.45,West,270,0.0,5.3,27,0.00,,,0.00,WUHU216HW,2013-05-02 18:55:00,
2013-05-02 12:00:00,73.3,38.1,30.45,NW,315,5.5,5.8,28,0.00,,,0.00,WUHU216HW,2013-05-02 19:00:00,
2013-05-02 12:06:00,72.9,36.8,30.45,NW,315,0.0,5.8,27,0.00,,,0.00,WUHU216HW,2013-05-02 19:06:00,
2013-05-02 12:11:00,73.8,37.6,30.45,North,0,0.0,0.0,27,0.00,,,0.00,WUHU216HW,2013-05-02 19:11:00,
2013-05-02 12:17:00,74.4,38.1,30.44,South,180,0.0,0.0,27,0.00,,,0.00,WUHU216HW,2013-05-02 19:17:00,
2013-05-02 12:23:00,74.5,38.2,30.45,North,0,6.9,7.3,27,0.00,,,0.00,WUHU216HW,2013-05-02 19:23:00,
2013-05-02 12:28:00,74.1,35.9,30.44,West,270,6.1,7.3,25,0.00,,,0.00,WUHU216HW,2013-05-02 19:28:00,
2013-05-02 12:33:00,73.3,38.0,30.44,North,0,0.0,7.3,28,0.00,,,0.00,WUHU216HW,2013-05-02 19:33:00,
2013-05-02 12:38:00,73.2,35.2,30.44,North,0,0.0,6.9,25,0.00,,,0.00,WUHU216HW,2013-05-02 19:38:00,
2013-05-02 12:43:00,73.4,37.3,30.43,West,270,0.0,6.9,27,0.00,,,0.00,WUHU216HW,2013-05-02 19:43:00,
2013-05-02 12:50:00,72.5,36.5,30.44,NNW,338,6.6,6.9,27,0.00,,,0.00,WUHU216HW,2013-05-02 19:50:00,
2013-05-02 12:56:00,72.8,35.8,30.44,NNE,23,0.0,6.9,26,0.00,,,0.00,WUHU216HW,2013-05-02 19:56:00,
2013-05-02 13:01:00,71.4,34.6,30.43,NE,45,0.0,6.4,26,0.00,,,0.00,WUHU216HW,2013-05-02 20:01:00,
2013-05-02 13:07:00,72.5,37.4,30.43,WSW,248,4.8,6.4,28,0.00,,,0.00,WUHU216HW,2013-05-02 20:07:00,
2013-05-02 13:13:00,71.9,36.9,30.43,WSW,248,0.0,5.1,28,0.00,,,0.00,WUHU216HW,2013-05-02 20:13:00,
2013-05-02 13:18:00,71.6,36.6,30.43,WNW,293,0.0,3.5,28,0.00,,,0.00,WUHU216HW,2013-05-02 20:18:00,
2013-05-02 13:23:00,72.5,37.4,30.43,NW,315,0.0,3.5,28,0.00,,,0.00,WUHU216HW,2013-05-02 20:23:00,
2013-05-02 13:29:00,72.3,37.2,30.43,NW,315,0.0,1.5,28,0.00,,,0.00,WUHU216HW,2013-05-02 20:29:00,
2013-05-02 13:34:00,72.5,37.4,30.43,West,270,5.9,6.2,28,0.00,,,0.00,WUHU216HW,2013-05-02 20:34:00,
2013-05-02 13:39:00,72.8,36.7,30.43,WSW,248,0.0,7.6,27,0.00,,,0.00,WUHU216HW,2013-05-02 20:39:00,
2013-05-02 13:45:00,72.5,36.5,30.42,NNW,338,0.0,7.6,27,0.00,,,0.00,WUHU216HW,2013-05-02 20:45:00,
2013-05-02 13:51:00,72.5,37.4,30.43,West,270,0.0,2.0,28,0.00,,,0.00,WUHU216HW,2013-05-02 20:51:00,
2013-05-02 13:57:00,71.6,36.6,30.42,NE,45,0.0,1.1,28,0.00,,,0.00,WUHU216HW,2013-05-02 20:57:00,
2013-05-02 14:02:00,71.2,36.3,30.42,NNW,338,0.0,1.1,28,0.00,,,0.00,WUHU216HW,2013-05-02 21:02:00,
2013-05-02 14:07:00,72.5,36.5,30.42,WSW,248,0.0,0.0,27,0.00,,,0.00,WUHU216HW,2013-05-02 21:07:00,
2013-05-02 14:12:00,71.9,35.0,30.42,North,0,0.0,0.0,26,0.00,,,0.00,WUHU216HW,2013-05-02 21:12:00,
2013-05-02 14:17:00,72.5,36.5,30.42,NW,315,0.0,0.0,27,0.00,,,0.00,WUHU216HW,2013-05-02 21:17:00,
2013-05-02 14:23:00,72.1,36.1,30.42,WSW,248,3.6,3.8,27,0.00,,,0.00,WUHU216HW,2013-05-02 21:23:00,
2013-05-02 14:29:00,72.5,35.5,30.42,West,270,4.0,4.2,26,0.00,,,0.00,WUHU216HW,2013-05-02 21:29:00,
2013-05-02 14:34:00,71.9,34.1,30.41,North,0,0.0,4.2,25,0.00,,,0.00,WUHU216HW,2013-05-02 21:34:00,
2013-05-02 14:39:00,71.9,35.0,30.41,SSW,203,0.0,1.1,26,0.00,,,0.00,WUHU216HW,2013-05-02 21:39:00,
2013-05-02 14:45:00,71.1,34.3,30.42,West,270,0.0,4.0,26,0.00,,,0.00,WUHU216HW,2013-05-02 21:45:00,
2013-05-02 14:51:00,70.2,32.6,30.41,NW,315,6.7,7.1,25,0.00,,,0.00,WUHU216HW,2013-05-02 21:51:00,
2013-05-02 14:56:00,68.8,32.4,30.42,NNE,23,8.6,9.1,26,0.00,,,0.00,WUHU216HW,2013-05-02 21:56:00,
2013-05-02 15:01:00,68.5,33.9,30.41,NE,45,1.4,9.1,28,0.00,,,0.00,WUHU216HW,2013-05-02 22:01:00,
2013-05-02 15:07:00,68.4,32.9,30.41,North,0,2.8,2.9,27,0.00,,,0.00,WUHU216HW,2013-05-02 22:07:00,
2013-05-02 15:13:00,68.4,32.9,30.41,WNW,293,0.0,2.9,27,0.00,,,0.00,WUHU216HW,2013-05-02 22:13:00,
2013-05-02 15:19:00,68.2,34.6,30.41,NNE,23,0.0,1.5,29,0.00,,,0.00,WUHU216HW,2013-05-02 22:19:00,
2013-05-02 15:24:00,67.5,34.8,30.41,NNW,338,0.0,6.2,30,0.00,,,0.00,WUHU216HW,2013-05-02 22:24:00,
2013-05-02 15:29:00,67.7,34.9,30.41,NW,315,0.0,6.2,30,0.00,,,0.00,WUHU216HW,2013-05-02 22:29:00,
2013-05-02 15:34:00,68.1,35.3,30.41,NW,315,0.0,0.0,30,0.00,,,0.00,WUHU216HW,2013-05-02 22:34:00,
2013-05-02 15:40:00,67.4,34.7,30.40,North,0,0.0,6.9,30,0.00,,,0.00,WUHU216HW,2013-05-02 22:40:00,
2013-05-02 15:45:00,67.9,35.1,30.41,NNE,23,0.0,6.9,30,0.00,,,0.00,WUHU216HW,2013-05-02 22:45:00,
2013-05-02 15:50:00,67.2,34.5,30.41,NNW,338,0.0,4.2,30,0.00,,,0.00,WUHU216HW,2013-05-02 22:50:00,
2013-05-02 15:56:00,67.4,34.7,30.40,NNW,338,1.9,5.1,30,0.00,,,0.00,WUHU216HW,2013-05-02 22:56:00,
2013-05-02 16:02:00,66.9,33.4,30.40,West,270,0.0,2.0,29,0.00,,,0.00,WUHU216HW,2013-05-02 23:02:00,
2013-05-02 16:09:00,67.3,33.8,30.40,North,0,0.0,0.0,29,0.00,,,0.00,WUHU216HW,2013-05-02 23:09:00,
2013-05-02 16:14:00,67.5,34.8,30.40,North,0,0.0,0.0,30,0.00,,,0.00,WUHU216HW,2013-05-02 23:14:00,
2013-05-02 16:21:00,67.1,34.5,30.40,NNE,23,0.0,5.1,30,0.00,,,0.00,WUHU216HW,2013-05-02 23:21:00,
2013-05-02 16:26:00,66.7,34.1,30.40,NNW,338,0.0,5.1,30,0.00,,,0.00,WUHU216HW,2013-05-02 23:26:00,
2013-05-02 16:31:00,66.1,33.6,30.40,North,0,1.6,1.7,30,0.00,,,0.00,WUHU216HW,2013-05-02 23:31:00,
2013-05-02 16:36:00,66.1,33.6,30.40,West,270,0.0,1.7,30,0.00,,,0.00,WUHU216HW,2013-05-02 23:36:00,
2013-05-02 16:41:00,66.3,33.8,30.40,NNW,338,0.0,0.0,30,0.00,,,0.00,WUHU216HW,2013-05-02 23:41:00,
2013-05-02 16:46:00,65.9,32.5,30.40,NNW,338,0.0,0.0,29,0.00,,,0.00,WUHU216HW,2013-05-02 23:46:00,
2013-05-02 16:52:00,65.5,33.0,30.40,ENE,68,0.6,0.6,30,0.00,,,0.00,WUHU216HW,2013-05-02 23:52:00,
2013-05-02 16:57:00,65.2,32.8,30.39,West,270,0.0,0.6,30,0.00,,,0.00,WUHU216HW,2013-05-02 23:57:00,
2013-05-02 17:02:00,65.3,33.6,30.39,NW,315,0.0,0.0,31,0.00,,,0.00,WUHU216HW,2013-05-03 00:02:00,
2013-05-02 17:08:00,64.7,32.3,30.39,NNW,338,0.0,6.0,30,0.00,,,0.00,WUHU216HW,2013-05-03 00:08:00,
2013-05-02 17:14:00,64.9,33.3,30.39,NNE,23,0.0,6.0,31,0.00,,,0.00,WUHU216HW,2013-05-03 00:14:00,
2013-05-02 17:19:00,64.7,33.2,30.38,NE,45,3.6,3.8,31,0.00,,,0.00,WUHU216HW,2013-05-03 00:19:00,
2013-05-02 17:25:00,64.8,34.0,30.39,NE,45,0.0,3.8,32,0.00,,,0.00,WUHU216HW,2013-05-03 00:25:00,
2013-05-02 17:30:00,64.3,32.8,30.38,North,0,0.0,7.6,31,0.00,,,0.00,WUHU216HW,2013-05-03 00:30:00,
2013-05-02 17:35:00,64.3,33.6,30.38,West,280,4.0,7.6,32,0.00,,,0.00,WUHU216HW,2013-05-03 00:35:00,
2013-05-02 17:41:00,64.0,33.3,30.38,NW,315,0.0,7.1,32,0.00,,,0.00,WUHU216HW,2013-05-03 00:41:00,
2013-05-02 17:46:00,64.2,33.5,30.38,NNW,338,0.0,6.2,32,0.00,,,0.00,WUHU216HW,2013-05-03 00:46:00,
2013-05-02 17:52:00,64.2,33.5,30.38,NNW,338,1.0,2.2,32,0.00,,,0.00,WUHU216HW,2013-05-03 00:52:00,
2013-05-02 17:57:00,63.8,33.1,30.38,NNW,338,7.6,8.0,32,0.00,,,0.00,WUHU216HW,2013-05-03 00:57:00,
2013-05-02 18:02:00,63.6,33.7,30.38,NNW,338,3.8,8.0,33,0.00,,,0.00,WUHU216HW,2013-05-03 01:02:00,
2013-05-02 18:07:00,63.4,34.3,30.39,WNW,293,0.0,4.0,34,0.00,,,0.00,WUHU216HW,2013-05-03 01:07:00,
2013-05-02 18:12:00,63.0,34.7,30.39,NNE,23,3.2,3.5,35,0.00,,,0.00,WUHU216HW,2013-05-03 01:12:00,
2013-05-02 18:18:00,62.2,34.7,30.39,North,4,5.4,6.7,36,0.00,,,0.00,WUHU216HW,2013-05-03 01:18:00,
2013-05-02 18:23:00,61.7,35.0,30.38,NNE,23,0.0,6.7,37,0.00,,,0.00,WUHU216HW,2013-05-03 01:23:00,
2013-05-02 18:28:00,61.4,34.7,30.39,NE,45,4.4,4.6,37,0.00,,,0.00,WUHU216HW,2013-05-03 01:28:00,
2013-05-02 18:35:00,61.4,36.1,30.39,ENE,68,0.0,4.6,39,0.00,,,0.00,WUHU216HW,2013-05-03 01:35:00,
2013-05-02 18:43:00,61.0,35.0,30.38,NNW,340,9.8,15.2,38,0.00,,,0.00,WUHU216HW,2013-05-03 01:43:00,
2013-05-02 18:48:00,60.6,35.3,30.38,NNE,23,0.0,15.2,39,0.00,,,0.00,WUHU216HW,2013-05-03 01:48:00,
2013-05-02 18:53:00,60.6,35.9,30.38,NW,315,0.0,4.0,40,0.00,,,0.00,WUHU216HW,2013-05-03 01:53:00,
2013-05-02 18:58:00,60.3,35.7,30.38,North,0,0.0,1.5,40,0.00,,,0.00,WUHU216HW,2013-05-03 01:58:00,
2013-05-02 19:03:00,60.1,35.5,30.38,NNW,338,0.0,6.9,40,0.00,,,0.00,WUHU216HW,2013-05-03 02:03:00,
2013-05-02 19:08:00,59.2,35.4,30.38,NNE,23,0.0,0.0,41,0.00,,,0.00,WUHU216HW,2013-05-03 02:08:00,
2013-05-02 19:14:00,58.5,35.4,30.38,NW,315,0.0,6.9,42,0.00,,,0.00,WUHU216HW,2013-05-03 02:14:00,
2013-05-02 19:19:00,57.8,35.3,30.37,North,0,0.0,6.9,43,0.00,,,0.00,WUHU216HW,2013-05-03 02:19:00,
2013-05-02 19:24:00,57.6,35.2,30.37,NW,315,0.0,4.9,43,0.00,,,0.00,WUHU216HW,2013-05-03 02:24:00,
2013-05-02 19:29:00,57.6,35.2,30.37,North,0,0.0,1.5,43,0.00,,,0.00,WUHU216HW,2013-05-03 02:29:00,
2013-05-02 19:34:00,57.4,35.6,30.37,North,0,0.0,0.0,44,0.00,,,0.00,WUHU216HW,2013-05-03 02:34:00,
2013-05-02 19:39:00,57.4,35.6,30.37,NNE,23,0.0,0.0,44,0.00,,,0.00,WUHU216HW,2013-05-03 02:39:00,
2013-05-02 19:44:00,57.0,35.8,30.37,North,0,0.0,0.0,45,0.00,,,0.00,WUHU216HW,2013-05-03 02:44:00,
2013-05-02 19:49:00,56.5,35.9,30.37,NNE,23,3.8,4.0,46,0.00,,,0.00,WUHU216HW,2013-05-03 02:49:00,
2013-05-02 19:54:00,56.2,36.1,30.37,North,0,1.6,4.0,47,0.00,,,0.00,WUHU216HW,2013-05-03 02:54:00,
2013-05-02 19:59:00,55.9,35.9,30.38,North,0,0.0,2.2,47,0.00,,,0.00,WUHU216HW,2013-05-03 02:59:00,
2013-05-02 20:04:00,55.7,35.7,30.37,North,0,0.0,2.2,47,0.00,,,0.00,WUHU216HW,2013-05-03 03:04:00,
2013-05-02 20:09:00,55.3,35.9,30.38,NNW,338,0.0,1.1,48,0.00,,,0.00,WUHU216HW,2013-05-03 03:09:00,
2013-05-02 20:15:00,55.0,36.1,30.38,NNE,23,0.0,1.1,49,0.00,,,0.00,WUHU216HW,2013-05-03 03:15:00,
2013-05-02 20:21:00,54.4,35.6,30.38,WNW,293,0.0,0.0,49,0.00,,,0.00,WUHU216HW,2013-05-03 03:21:00,
2013-05-02 20:27:00,54.1,35.3,30.38,NNW,338,0.0,0.0,49,0.00,,,0.00,WUHU216HW,2013-05-03 03:27:00,
2013-05-02 20:32:00,53.9,35.1,30.37,NNE,23,0.6,7.3,49,0.00,,,0.00,WUHU216HW,2013-05-03 03:32:00,
2013-05-02 20:38:00,53.7,35.5,30.37,West,270,0.0,7.3,50,0.00,,,0.00,WUHU216HW,2013-05-03 03:38:00,
2013-05-02 20:43:00,53.5,35.3,30.37,NNE,23,0.0,2.4,50,0.00,,,0.00,WUHU216HW,2013-05-03 03:43:00,
2013-05-02 20:48:00,53.4,35.2,30.37,NE,45,2.5,2.6,50,0.00,,,0.00,WUHU216HW,2013-05-03 03:48:00,
2013-05-02 20:54:00,53.2,35.0,30.37,NNE,23,2.1,2.6,50,0.00,,,0.00,WUHU216HW,2013-05-03 03:54:00,
2013-05-02 20:59:00,53.0,34.9,30.37,NE,45,0.0,2.2,50,0.00,,,0.00,WUHU216HW,2013-05-03 03:59:00,
2013-05-02 21:01:00,53.0,34.9,30.37,NE,45,2.5,2.6,50,0.00,,,0.00,WUHU216HW,2013-05-03 04:01:00,
2013-05-02 21:02:00,53.0,34.3,30.37,NW,315,0.0,2.6,49,0.00,,,0.00,WUHU216HW,2013-05-03 04:02:00,
2013-05-02 21:08:00,53.0,34.3,30.37,NNW,338,1.9,2.6,49,0.00,,,0.00,WUHU216HW,2013-05-03 04:08:00,
2013-05-02 21:13:00,53.0,34.3,30.37,NNW,340,1.7,3.1,49,0.00,,,0.00,WUHU216HW,2013-05-03 04:13:00,
2013-05-02 21:18:00,52.8,34.1,30.37,NNE,23,0.0,3.1,49,0.00,,,0.00,WUHU216HW,2013-05-03 04:18:00,
2013-05-02 21:23:00,52.6,34.0,30.38,NNE,23,0.0,0.0,49,0.00,,,0.00,WUHU216HW,2013-05-03 04:23:00,
2013-05-02 21:28:00,52.6,34.0,30.37,North,0,0.0,0.0,49,0.00,,,0.00,WUHU216HW,2013-05-03 04:28:00,
2013-05-02 21:33:00,52.6,34.0,30.37,NE,45,0.0,0.0,49,0.00,,,0.00,WUHU216HW,2013-05-03 04:33:00,
2013-05-02 21:38:00,52.6,34.0,30.37,NW,315,0.0,0.0,49,0.00,,,0.00,WUHU216HW,2013-05-03 04:38:00,
2013-05-02 21:43:00,52.3,33.7,30.37,NNW,338,0.0,0.0,49,0.00,,,0.00,WUHU216HW,2013-05-03 04:43:00,
2013-05-02 21:49:00,52.3,33.7,30.37,West,270,0.0,0.0,49,0.00,,,0.00,WUHU216HW,2013-05-03 04:49:00,
2013-05-02 21:54:00,52.1,34.0,30.37,NNW,338,0.0,0.0,50,0.00,,,0.00,WUHU216HW,2013-05-03 04:54:00,
2013-05-02 21:59:00,52.1,34.0,30.37,North,0,0.0,3.3,50,0.00,,,0.00,WUHU216HW,2013-05-03 04:59:00,
2013-05-02 22:04:00,51.7,34.2,30.37,NNW,338,0.0,3.3,51,0.00,,,0.00,WUHU216HW,2013-05-03 05:04:00,
2013-05-02 22:09:00,51.5,33.9,30.37,North,0,0.0,0.0,51,0.00,,,0.00,WUHU216HW,2013-05-03 05:09:00,
2013-05-02 22:15:00,51.3,34.2,30.38,North,0,0.0,0.0,52,0.00,,,0.00,WUHU216HW,2013-05-03 05:15:00,
2013-05-02 22:22:00,50.8,34.3,30.38,North,0,0.0,0.0,53,0.00,,,0.00,WUHU216HW,2013-05-03 05:22:00,
2013-05-02 22:27:00,50.6,34.6,30.37,North,0,0.0,0.0,54,0.00,,,0.00,WUHU216HW,2013-05-03 05:27:00,
2013-05-02 22:33:00,50.4,34.9,30.37,NW,315,1.0,1.1,55,0.00,,,0.00,WUHU216HW,2013-05-03 05:33:00,
2013-05-02 22:39:00,50.0,34.5,30.37,NE,45,0.0,1.1,55,0.00,,,0.00,WUHU216HW,2013-05-03 05:39:00,
2013-05-02 22:44:00,50.0,35.0,30.37,North,0,0.0,0.0,56,0.00,,,0.00,WUHU216HW,2013-05-03 05:44:00,
2013-05-02 22:50:00,49.9,34.9,30.37,NW,315,0.0,0.0,56,0.00,,,0.00,WUHU216HW,2013-05-03 05:50:00,
2013-05-02 22:55:00,50.0,35.0,30.37,NNE,23,0.0,0.0,56,0.00,,,0.00,WUHU216HW,2013-05-03 05:55:00,
2013-05-02 23:01:00,49.7,34.7,30.37,NNE,23,0.0,0.0,56,0.00,,,0.00,WUHU216HW,2013-05-03 06:01:00,
2013-05-02 23:06:00,49.7,35.1,30.38,North,0,0.0,0.0,57,0.00,,,0.00,WUHU216HW,2013-05-03 06:06:00,
2013-05-02 23:11:00,49.7,35.1,30.38,North,0,0.0,0.0,57,0.00,,,0.00,WUHU216HW,2013-05-03 06:11:00,
2013-05-02 23:17:00,49.7,35.1,30.38,NNW,338,0.0,3.8,57,0.00,,,0.00,WUHU216HW,2013-05-03 06:17:00,
2013-05-02 23:22:00,49.7,35.6,30.37,NNE,23,0.0,3.8,58,0.00,,,0.00,WUHU216HW,2013-05-03 06:22:00,
2013-05-02 23:27:00,49.7,35.6,30.37,NNW,338,0.0,0.0,58,0.00,,,0.00,WUHU216HW,2013-05-03 06:27:00,
2013-05-02 23:32:00,49.5,35.8,30.37,NNE,23,0.0,0.0,59,0.00,,,0.00,WUHU216HW,2013-05-03 06:32:00,
2013-05-02 23:37:00,49.5,35.8,30.38,NNE,23,0.0,0.0,59,0.00,,,0.00,WUHU216HW,2013-05-03 06:37:00,
2013-05-02 23:42:00,49.5,36.3,30.38,North,0,0.0,0.0,60,0.00,,,0.00,WUHU216HW,2013-05-03 06:42:00,
2013-05-02 23:47:00,49.9,36.2,30.38,NNE,23,0.0,0.0,59,0.00,,,0.00,WUHU216HW,2013-05-03 06:47:00,
2013-05-02 23:52:00,49.9,36.2,30.38,NNE,23,0.0,0.0,59,0.00,,,0.00,WUHU216HW,2013-05-03 06:52:00,
2013-05-02 23:57:00,49.9,36.2,30.39,ENE,68,0.0,0.0,59,0.00,,,0.00,WUHU216HW,2013-05-03 06:57:00,